DateTimeUTC,F1_A11,F1_S11,BsB_S11,BsG_S11,BsR_S11,BbsB_S11,BbsG_S11,BbsR_S11,BaB_A11,BaG_A11,BaR_A11,Tu_S11,T_S11,Uu_S11,U_S11,P_S11,T1_A11
2021-07-03T15:00:00Z,00000200,20000000,,,,,,,0000.22,-000.33,-000.06,19.1,25.6,08.2,05.5,0672.7,31.1
2021-07-03T15:01:00Z,00000200,20000000,,,,,,,0000.28,0000.65,0000.31,19.1,25.6,08.1,05.4,0672.7,31.1
2021-07-03T15:02:00Z,00000200,20000000,,,,,,,-000.32,-000.51,-000.20,19.0,25.6,08.1,05.4,0672.7,31.1
2021-07-03T15:03:00Z,00000200,60000000,,,,,,,0000.02,0000.25,0000.28,19.0,25.6,08.1,05.4,0672.7,31.1
2021-07-03T15:04:00Z,00000200,40000000,0000.53,0000.75,0000.26,0000.49,0000.65,0000.25,0000.25,0000.32,-000.18,19.1,25.4,08.3,05.7,0673.6,31.1
2021-07-03T15:05:00Z,00000200,00000000,0000.29,0000.70,0000.18,-000.15,0000.01,0000.06,0000.02,0000.04,0000.25,19.1,25.4,08.3,05.7,0673.6,31.1
2021-07-03T15:06:00Z,00000200,00000000,0000.99,0000.68,0000.05,0000.12,0000.13,0000.28,0000.00,0000.35,0000.14,19.2,25.3,08.2,05.7,0673.6,31.1
2021-07-03T15:07:00Z,00000200,00000000,0001.37,0000.67,0000.17,0000.42,0000.09,0000.06,0000.16,-000.26,-000.11,19.1,25.3,08.5,05.8,0673.7,31.1
2021-07-03T15:08:00Z,00000200,00000000,0001.06,0000.61,0000.51,-000.22,0000.07,0000.12,0000.45,0000.52,0000.54,19.2,25.4,08.5,05.8,0673.7,31.1
2021-07-03T15:09:00Z,00000200,00000000,0001.01,0000.52,0000.50,0000.06,0000.12,0000.31,-000.28,-000.14,-000.27,19.3,25.4,08.5,05.9,0673.7,31.2
2021-07-03T15:10:00Z,00000200,00000000,0001.01,0000.77,0000.16,0000.43,0000.16,0000.49,-000.06,0000.29,0000.49,19.3,25.4,08.5,05.8,0673.6,31.1
2021-07-03T15:11:00Z,00000200,00000000,0001.51,0000.82,0000.41,-000.62,0000.21,0000.22,0000.61,-000.04,-000.20,19.3,25.4,08.5,05.9,0673.7,31.2
2021-07-03T15:12:00Z,00000200,00000000,0001.33,0000.42,0000.28,0000.25,-000.05,0000.19,0000.20,0000.16,0000.09,19.3,25.4,08.5,05.9,0673.6,31.2
2021-07-03T15:13:00Z,00000200,00000000,0000.64,0000.79,0000.13,-000.70,0000.15,0000.26,0000.03,0000.11,0000.12,19.3,25.4,08.6,05.9,0673.7,31.1
2021-07-03T15:14:00Z,00000200,00000000,0001.12,0000.71,0000.18,0000.10,0000.44,-000.20,-000.08,0000.18,-000.16,19.3,25.4,08.7,06.0,0673.6,31.2
2021-07-03T15:15:00Z,00000200,00000000,0000.70,0000.42,-000.08,-000.04,0000.37,0000.22,0000.08,0000.00,0000.36,19.3,25.4,08.7,06.0,0673.7,31.1
2021-07-03T15:16:00Z,00000200,00000000,0000.97,0000.81,0000.23,-000.43,0000.08,0000.13,0000.40,0000.26,-000.03,19.3,25.4,08.7,06.0,0673.7,31.1
2021-07-03T15:17:00Z,00000200,00000000,0001.25,0000.71,0000.40,0000.39,0000.23,0000.33,0000.12,-000.06,0000.03,19.3,25.4,08.7,06.0,0673.6,31.1
2021-07-03T15:18:00Z,00000200,00000000,0001.16,0000.95,0000.10,0000.50,0000.11,0000.05,-000.07,-000.04,0000.00,19.3,25.4,08.8,06.1,0673.6,31.1
2021-07-03T15:19:00Z,00000200,00000000,0000.86,0000.75,0000.43,-000.38,0000.02,0000.32,0000.01,0000.28,0000.28,19.3,25.4,08.7,06.0,0673.6,31.1
2021-07-03T15:20:00Z,00000200,00000000,0001.58,0000.84,0000.11,-000.52,0000.15,0000.01,0000.35,0000.16,0000.16,19.3,25.4,08.9,06.1,0673.7,31.1
2021-07-03T15:21:00Z,00000200,00000000,0001.13,0000.68,0000.57,-000.20,0000.03,0000.24,-000.17,-000.38,-000.15,19.3,25.4,09.0,06.2,0673.6,31.1
2021-07-03T15:22:00Z,00000200,00000000,0001.05,0000.64,0000.46,0000.36,0000.26,0000.14,0000.33,0000.67,0000.48,19.3,25.4,08.9,06.1,0673.6,31.1
2021-07-03T15:23:00Z,00000200,00000000,0001.26,0000.62,0000.44,-000.15,0000.41,0000.12,0000.01,-000.35,0000.10,19.3,25.4,08.9,06.1,0673.5,31.1
2021-07-03T15:24:00Z,00000200,00000000,0001.40,0000.81,0000.58,-000.02,0000.34,0000.27,0000.04,0000.33,-000.25,19.3,25.4,09.0,06.2,0673.6,31.1
2021-07-03T15:25:00Z,00000200,00000000,0000.80,0000.79,-000.09,0000.13,0000.15,-000.08,0000.04,-000.13,0000.30,19.3,25.4,08.9,06.1,0673.5,31.1
2021-07-03T15:26:00Z,00000200,00000000,0000.97,0000.40,0000.16,-000.60,0000.38,-000.14,0000.30,0000.55,0000.11,19.3,25.3,09.0,06.2,0673.6,31.1
2021-07-03T15:27:00Z,00000200,00000000,0000.52,0000.60,0000.11,0000.00,0000.31,0000.14,0000.18,-000.14,-000.24,19.3,25.4,09.0,06.2,0673.5,31.1
2021-07-03T15:28:00Z,00000200,00000000,0001.07,0000.74,0000.11,0000.14,0000.28,0000.17,-000.04,-000.06,0000.10,19.3,25.4,08.9,06.1,0673.5,31.1
2021-07-03T15:29:00Z,00000200,00000000,0001.00,0000.90,0000.05,0000.35,0000.44,-000.27,0000.15,0000.02,0000.01,19.3,25.3,09.0,06.2,0673.5,31.1
2021-07-03T15:30:00Z,00000200,00000000,0000.50,0000.63,0000.10,-000.35,0000.28,0000.08,-000.09,0000.12,0000.20,19.2,25.4,08.9,06.2,0673.6,31.1
2021-07-03T15:31:00Z,00000200,00000000,0001.24,0000.86,0000.08,-000.16,0000.14,0000.14,0000.13,0000.04,0000.05,19.2,25.3,09.1,06.2,0673.5,31.1
2021-07-03T15:32:00Z,00000200,00000000,0001.06,0000.48,0000.45,0000.37,0000.12,-000.02,-000.08,-000.10,0000.23,19.2,25.3,09.1,06.3,0673.5,31.1
2021-07-03T15:33:00Z,00000200,00000000,0000.22,0000.77,0000.39,0000.19,0000.28,0000.13,-000.02,0000.28,0000.19,19.3,25.3,09.2,06.3,0673.5,31.1
2021-07-03T15:34:00Z,00000200,00000000,0000.89,0000.34,0000.07,0000.61,0000.13,-000.04,0000.31,0000.25,-000.32,19.2,25.3,09.2,06.4,0673.5,31.1
2021-07-03T15:35:00Z,00000200,00000000,0000.60,0000.13,0000.25,-000.23,0000.15,0000.19,0000.16,0000.11,0000.40,19.2,25.3,09.1,06.3,0673.6,31.1
2021-07-03T15:36:00Z,00000200,00000000,0001.37,0000.49,0000.43,-000.00,-000.01,0000.01,-000.05,-000.16,-000.19,19.2,25.3,09.3,06.4,0673.6,31.1
2021-07-03T15:37:00Z,00000200,00000000,0001.60,0000.54,0000.09,0000.17,-000.01,0000.01,0000.36,0000.17,0000.12,19.2,25.3,09.4,06.5,0673.6,31.1
2021-07-03T15:38:00Z,00000200,00000000,0000.77,0000.69,0000.12,0000.25,0000.27,0000.04,0000.05,0000.26,0000.35,19.3,25.3,09.3,06.4,0673.6,31.1
2021-07-03T15:39:00Z,00000200,00000000,0001.15,0000.44,-000.02,0000.07,0000.17,0000.27,0000.30,0000.14,-000.17,19.3,25.4,09.4,06.5,0673.5,31.1
2021-07-03T15:40:00Z,00000200,00000000,0000.85,0000.71,0000.27,-000.03,0000.44,0000.35,0000.01,0000.04,0000.13,19.3,25.4,09.3,06.4,0673.6,31.1
2021-07-03T15:41:00Z,00000200,00000000,0000.83,0000.54,0000.41,-000.12,0000.09,0000.04,-000.28,0000.20,0000.25,19.3,25.4,09.5,06.6,0673.6,31.2
2021-07-03T15:42:00Z,00000200,00000000,0000.49,0000.49,0000.01,-000.06,0000.01,0000.14,0000.33,-000.28,-000.22,19.3,25.4,09.4,06.5,0673.5,31.2
2021-07-03T15:43:00Z,00000200,00000000,0000.89,0000.69,0000.07,0000.33,0000.09,-000.02,0000.04,0000.14,-000.01,19.3,25.4,09.3,06.5,0673.5,31.1
2021-07-03T15:44:00Z,00000200,00000000,0000.69,0000.96,0000.33,-000.35,0000.24,0000.11,0000.16,0000.14,0000.23,19.3,25.4,09.5,06.6,0673.6,31.1
2021-07-03T15:45:00Z,00000200,00000000,0001.12,0000.63,0000.71,-000.04,0000.01,-000.04,0000.25,0000.00,0000.41,19.3,25.4,09.3,06.5,0673.5,31.1
2021-07-03T15:46:00Z,00000200,00000000,0000.82,0000.39,0000.24,-000.23,0000.07,0000.32,0000.04,-000.14,-000.29,19.3,25.3,09.4,06.5,0673.5,31.1
2021-07-03T15:47:00Z,00000200,00000000,0000.49,0000.67,0000.17,-000.06,0000.24,0000.27,0000.22,0000.42,0000.18,19.3,25.4,09.4,06.5,0673.5,31.1
2021-07-03T15:48:00Z,00000200,00000000,0000.26,0000.69,0000.20,-000.23,0000.13,-000.24,0000.12,0000.34,0000.15,19.3,25.4,09.7,06.7,0673.6,31.1
2021-07-03T15:49:00Z,00000200,00000000,0000.56,0000.75,0000.40,-000.14,0000.09,0000.08,-000.07,0000.00,0000.06,19.3,25.4,09.7,06.7,0673.7,31.1
2021-07-03T15:50:00Z,00000200,00000000,0000.52,0000.69,0000.57,0000.23,0000.19,0000.48,-000.06,0000.00,0000.11,19.3,25.4,09.6,06.6,0673.6,31.1
2021-07-03T15:51:00Z,00000200,00000000,0000.41,0000.53,0000.03,-000.66,0000.25,-000.09,0000.34,0000.35,-000.01,19.3,25.3,09.8,06.7,0673.6,31.1
2021-07-03T15:52:00Z,00000200,00000000,0000.37,0000.26,0000.49,0000.31,0000.42,0000.12,0000.15,0000.40,0000.20,19.3,25.3,09.7,06.7,0673.6,31.1
2021-07-03T15:53:00Z,00000200,00000000,0000.42,0000.47,0000.04,-000.16,0000.22,0000.01,0000.17,-000.59,-000.02,19.3,25.3,09.9,06.8,0673.6,31.1
2021-07-03T15:54:00Z,00000200,00000000,0001.27,0000.92,0000.25,-000.32,0000.23,0000.03,0000.29,0000.39,0000.25,19.3,25.3,09.7,06.7,0673.5,31.1
2021-07-03T15:55:00Z,00000200,00000000,0000.58,0000.70,0000.32,0000.07,0000.21,-000.03,-000.42,-000.11,0000.15,19.3,25.3,09.8,06.8,0673.5,31.1
2021-07-03T15:56:00Z,00000200,00000000,0000.86,0000.58,0000.26,-000.16,0000.09,0000.06,0000.45,0000.06,0000.00,19.2,25.3,09.8,06.8,0673.7,31.1
2021-07-03T15:57:00Z,00000200,40000000,,,,,,,-000.68,-000.23,-000.44,19.3,25.4,09.7,06.7,0673.4,31.1
2021-07-03T15:58:00Z,00000200,60000000,,,,,,,0000.31,0000.26,0000.19,19.1,25.4,09.6,06.5,0672.6,31.1
2021-07-03T15:59:00Z,00000200,20000000,,,,,,,0000.29,0000.22,0000.10,19.1,25.5,09.6,06.5,0672.6,31.1
